Location: Haut Kerinec
(48.0623°N, 4.4081°W)
Time: 17:51:50
(UTC+00:00)

Cosmos 1242 Rocket - Pass Details

Date: 01 June 2020
Orbit: 447 x 487 km, 81.2° (Epoch: 04 July)

Event Time Altitude Azimuth Distance (km) Brightness Sun altitude
Exits shadow 22:49:25 35° 197° (SSW) 810 3.2 -17.1°
Maximum altitude 22:50:53 82° 282° (WNW) 499 2.5 -17.2°
Drops below altitude 10° 22:54:35 10° 10° (N) 1,688 6.2 -17.4°
Sets 22:56:43 0° 11° (N) 2,573 7.3 -17.5°
